• In Moldova, Republic
  • List of Countries
  • For 7 days
  • Water Temperature
  • Satellite Maps
  • Weather Map
  • Weather Widgets
  • user-avatar
    Login

    Hourly Weather Konstantyna

    Today, 22 August, Tuesday

    Time Temperature Precipitation Wind Pressure Humidity
    00:00 +22°C° 0 mm 1 mps 711 mmHg 64%
    01:00 +22°C° 0 mm 1 mps 711 mmHg 65%
    02:00 +22°C° 0 mm 1 mps 711 mmHg 67%
    03:00 +21°C° 0 mm 1 mps 711 mmHg 68%
    04:00 +21°C° 0 mm 1 mps 711 mmHg 66%
    05:00 +22°C° 0 mm 1 mps 711 mmHg 64%
    06:00 +20°C° 0 mm 0 mps 711 mmHg 62%
    07:00 +24°C° 0 mm 1 mps 712 mmHg 52%
    08:00 +26°C° 0 mm 1 mps 712 mmHg 43%
    09:00 +28°C° 0 mm 1 mps 712 mmHg 33%
    10:00 +29°C° 0 mm 1 mps 712 mmHg 30%
    11:00 +30°C° 0 mm 2 mps 712 mmHg 27%
    12:00 +31°C° 0 mm 2 mps 712 mmHg 24%
    13:00 +33°C° 0 mm 3 mps 712 mmHg 24%
    14:00 +33°C° 0 mm 3 mps 712 mmHg 25%
    15:00 +33°C° 0 mm 3 mps 711 mmHg 25%
    16:00 +32°C° 0 mm 4 mps 711 mmHg 32%
    17:00 +30°C° 0 mm 4 mps 711 mmHg 38%
    18:00 +28°C° 0 mm 4 mps 711 mmHg 44%
    19:00 +27°C° 0 mm 3 mps 711 mmHg 50%
    20:00 +26°C° 0 mm 2 mps 711 mmHg 56%
    21:00 +25°C° 0 mm 2 mps 711 mmHg 62%
    22:00 +25°C° 0 mm 1 mps 711 mmHg 64%
    23:00 +24°C° 0 mm 1 mps 711 mmHg 65%

    Tomorrow, 23 August, Wednesday

    Time Temperature Precipitation Wind Pressure Humidity
    00:00 +24°C° 0 mm 1 mps 711 mmHg 67%
    01:00 +24°C° 0 mm 1 mps 711 mmHg 68%
    02:00 +23°C° 0 mm 1 mps 711 mmHg 69%
    03:00 +23°C° 0 mm 1 mps 710 mmHg 70%
    04:00 +23°C° 0 mm 1 mps 711 mmHg 68%
    05:00 +24°C° 0 mm 1 mps 711 mmHg 66%
    06:00 +24°C° 0 mm 1 mps 711 mmHg 65%
    07:00 +26°C° 0 mm 1 mps 712 mmHg 57%
    08:00 +28°C° 0 mm 1 mps 712 mmHg 49%
    09:00 +29°C° 0 mm 1 mps 713 mmHg 41%
    10:00 +31°C° 0 mm 1 mps 713 mmHg 36%
    11:00 +32°C° 0 mm 2 mps 713 mmHg 31%
    12:00 +34°C° 0 mm 2 mps 713 mmHg 27%
    13:00 +34°C° 0 mm 3 mps 712 mmHg 26%
    14:00 +34°C° 0 mm 3 mps 712 mmHg 26%
    15:00 +35°C° 0 mm 4 mps 712 mmHg 26%
    16:00 +33°C° 0 mm 4 mps 712 mmHg 30%
    17:00 +32°C° 0 mm 4 mps 712 mmHg 35%
    18:00 +30°C° 0 mm 4 mps 711 mmHg 39%
    19:00 +29°C° 0 mm 3 mps 712 mmHg 43%
    20:00 +28°C° 0 mm 2 mps 712 mmHg 46%
    21:00 +27°C° 0 mm 2 mps 712 mmHg 50%
    22:00 +26°C° 0 mm 1 mps 712 mmHg 51%
    23:00 +26°C° 0 mm 1 mps 712 mmHg 52%

    Day after tomorrow, 24 August, Thursday

    Time Temperature Precipitation Wind Pressure Humidity
    00:00 +25°C° 0 mm 1 mps 712 mmHg 53%
    01:00 +25°C° 0 mm 1 mps 711 mmHg 53%
    02:00 +25°C° 0 mm 1 mps 711 mmHg 53%
    03:00 +25°C° 0 mm 1 mps 711 mmHg 53%
    04:00 +25°C° 0 mm 1 mps 711 mmHg 52%
    05:00 +25°C° 0 mm 1 mps 711 mmHg 50%
    06:00 +26°C° 0 mm 1 mps 712 mmHg 49%
    07:00 +28°C° 0 mm 1 mps 712 mmHg 43%
    08:00 +30°C° 0 mm 1 mps 713 mmHg 37%
    09:00 +32°C° 0 mm 1 mps 713 mmHg 31%
    10:00 +34°C° 0 mm 2 mps 713 mmHg 28%
    11:00 +35°C° 0 mm 2 mps 713 mmHg 24%
    12:00 +36°C° 0 mm 2 mps 713 mmHg 21%
    13:00 +37°C° 0 mm 2 mps 712 mmHg 21%
    14:00 +37°C° 0 mm 3 mps 712 mmHg 20%
    15:00 +37°C° 0 mm 3 mps 712 mmHg 20%
    16:00 +36°C° 0 mm 3 mps 712 mmHg 23%
    17:00 +35°C° 0 mm 3 mps 711 mmHg 27%
    18:00 +34°C° 0 mm 3 mps 711 mmHg 30%
    19:00 +31°C° 0 mm 3 mps 711 mmHg 33%
    20:00 +30°C° 0 mm 2 mps 712 mmHg 37%
    21:00 +29°C° 0 mm 2 mps 712 mmHg 40%
    22:00 +29°C° 0 mm 1 mps 712 mmHg 41%
    23:00 +28°C° 0 mm 1 mps 711 mmHg 41%

    25 August, Friday

    Time Temperature Precipitation Wind Pressure Humidity
    00:00 +28°C° 0 mm 1 mps 711 mmHg 42%
    01:00 +28°C° 0 mm 1 mps 711 mmHg 42%
    02:00 +27°C° 0 mm 1 mps 711 mmHg 42%
    03:00 +27°C° 0 mm 1 mps 710 mmHg 42%
    04:00 +27°C° 0 mm 2 mps 711 mmHg 42%
    05:00 +28°C° 0 mm 2 mps 711 mmHg 42%
    06:00 +28°C° 0 mm 2 mps 711 mmHg 42%
    07:00 +30°C° 0 mm 2 mps 711 mmHg 38%
    08:00 +32°C° 0 mm 2 mps 712 mmHg 34%
    09:00 +34°C° 0 mm 3 mps 712 mmHg 30%
    10:00 +36°C° 0 mm 2 mps 712 mmHg 26%
    11:00 +37°C° 0 mm 2 mps 712 mmHg 23%
    12:00 +38°C° 0 mm 2 mps 712 mmHg 20%
    13:00 +38°C° 0 mm 3 mps 711 mmHg 20%
    14:00 +38°C° 0 mm 3 mps 711 mmHg 19%
    15:00 +39°C° 0 mm 3 mps 711 mmHg 19%
    16:00 +37°C° 0 mm 3 mps 710 mmHg 22%
    17:00 +36°C° 0 mm 3 mps 710 mmHg 25%
    18:00 +35°C° 0 mm 3 mps 710 mmHg 28%
    19:00 +34°C° 0 mm 2 mps 710 mmHg 31%
    20:00 +32°C° 0 mm 2 mps 710 mmHg 34%
    21:00 +31°C° 0 mm 1 mps 710 mmHg 37%
    22:00 +30°C° 0 mm 1 mps 710 mmHg 37%
    23:00 +30°C° 0 mm 1 mps 710 mmHg 37%

    26 August, Saturday

    Time Temperature Precipitation Wind Pressure Humidity
    00:00 +30°C° 0 mm 1 mps 710 mmHg 37%
    01:00 +29°C° 0 mm 1 mps 709 mmHg 38%
    02:00 +29°C° 0 mm 2 mps 709 mmHg 38%
    03:00 +29°C° 0 mm 2 mps 709 mmHg 39%
    04:00 +29°C° 0 mm 2 mps 709 mmHg 40%
    05:00 +29°C° 0 mm 2 mps 709 mmHg 41%
    06:00 +29°C° 0 mm 2 mps 709 mmHg 42%
    07:00 +31°C° 0 mm 3 mps 710 mmHg 37%
    08:00 +33°C° 0 mm 3 mps 710 mmHg 32%
    09:00 +35°C° 0 mm 3 mps 711 mmHg 27%
    10:00 +36°C° 0 mm 3 mps 710 mmHg 25%
    11:00 +38°C° 0 mm 3 mps 710 mmHg 23%
    12:00 +39°C° 0 mm 2 mps 710 mmHg 20%
    13:00 +39°C° 0 mm 3 mps 710 mmHg 20%
    14:00 +39°C° 0 mm 3 mps 710 mmHg 21%
    15:00 +39°C° 0 mm 3 mps 709 mmHg 21%
    16:00 +37°C° 0.2 mm 3 mps 709 mmHg 24%
    17:00 +36°C° 0.2 mm 3 mps 709 mmHg 27%
    18:00 +35°C° 0.2 mm 3 mps 709 mmHg 30%
    19:00 +34°C° 0.1 mm 2 mps 709 mmHg 32%
    20:00 +32°C° 0.1 mm 1 mps 709 mmHg 34%
    21:00 +31°C° 0.1 mm 1 mps 709 mmHg 37%
    22:00 +31°C° 0.2 mm 1 mps 709 mmHg 37%
    23:00 +30°C° 0.2 mm 1 mps 709 mmHg 38%

    27 August, Sunday

    Time Temperature Precipitation Wind Pressure Humidity
    00:00 +30°C° 0.2 mm 1 mps 709 mmHg 39%
    01:00 +30°C° 0.1 mm 1 mps 709 mmHg 39%
    02:00 +29°C° 0.1 mm 1 mps 709 mmHg 38%
    03:00 +29°C° 0.1 mm 2 mps 709 mmHg 38%
    04:00 +29°C° 0.1 mm 2 mps 709 mmHg 39%
    05:00 +29°C° 0.1 mm 2 mps 709 mmHg 39%
    06:00 +29°C° 0.1 mm 2 mps 709 mmHg 40%
    07:00 +31°C° 0.3 mm 2 mps 710 mmHg 36%
    08:00 +33°C° 0.3 mm 3 mps 710 mmHg 33%
    09:00 +35°C° 0.3 mm 3 mps 711 mmHg 29%
    10:00 +36°C° 0 mm 3 mps 710 mmHg 28%
    11:00 +37°C° 0 mm 3 mps 710 mmHg 27%
    12:00 +38°C° 0 mm 3 mps 710 mmHg 25%
    13:00 +38°C° 0 mm 3 mps 710 mmHg 25%
    14:00 +37°C° 0 mm 3 mps 710 mmHg 25%
    15:00 +37°C° 0 mm 3 mps 709 mmHg 26%
    16:00 +36°C° 0.2 mm 3 mps 709 mmHg 29%
    17:00 +35°C° 0.2 mm 4 mps 709 mmHg 33%
    18:00 +33°C° 0.2 mm 4 mps 709 mmHg 37%
    19:00 +33°C° 0.3 mm 3 mps 709 mmHg 39%
    20:00 +31°C° 0.3 mm 2 mps 709 mmHg 42%
    21:00 +30°C° 0.3 mm 2 mps 710 mmHg 44%
    22:00 +30°C° 0.1 mm 1 mps 709 mmHg 44%
    23:00 +29°C° 0.1 mm 1 mps 709 mmHg 44%
    Show more